Waarnemingen

Advertentie
Mijn weer
Koksijde, België (6400): temperatuur & dauwpunt: 17.04.2019 08:00:00 - 23.04.2019 08:00:00 (CEST)Koksijde, België (6400): windsnelheid & windstoten: 17.04.2019 08:00:00 - 23.04.2019 08:00:00 (CEST)Koksijde, België (6400): windrichting: 17.04.2019 08:00:00 - 23.04.2019 08:00:00 (CEST)Koksijde, België (6400): luchtdruk: 17.04.2019 08:00:00 - 23.04.2019 08:00:00 (CEST)Koksijde, België (6400): zicht: 17.04.2019 08:00:00 - 23.04.2019 08:00:00 (CEST)
Datum & Tijd tt [°C] td [°C] ff [km/u] ff [kn] fx [km/u] fx [kn] dd ppp [hPa] vv [km]
23.04.2019 08:00:00 9,8 5,1 7 4 - - O 998,7 20
23.04.2019 07:00:00 8,8 4,9 7 4 11 6 O 999,0 20
23.04.2019 06:00:00 9,5 4,8 7 4 11 6 O 999,1 15
23.04.2019 05:00:00 9,8 5,1 7 4 - - O 999,5 16
23.04.2019 04:00:00 9,5 5,2 11 6 14 8 O 1000,0 16
23.04.2019 03:00:00 10,3 4,5 11 6 18 10 O 1000,5 14
23.04.2019 02:00:00 12,4 4,5 14 8 - - O 1000,7 16
23.04.2019 01:00:00 12,6 4,9 14 8 18 10 O 1001,0 15
23.04.2019 00:00:00 15,1 5,0 7 4 11 6 ONO 1001,5 16
22.04.2019 23:00:00 15,8 4,9 7 4 - - NO 1002,1 19
22.04.2019 22:00:00 16,2 5,0 7 4 11 6 ONO 1002,3 14
22.04.2019 21:00:00 17,7 5,9 7 4 11 6 ONO 1002,3 18
22.04.2019 20:00:00 20,5 6,6 7 4 - - O 1002,6 16
22.04.2019 19:00:00 23,0 7,0 7 4 14 8 O 1003,0 20
22.04.2019 18:00:00 24,2 3,9 11 6 25 14 ZO 1003,3 17
22.04.2019 17:00:00 24,6 4,8 18 10 - - ZZO 1004,0 10
22.04.2019 16:00:00 24,2 5,5 18 10 29 16 ZZO 1004,6 16
22.04.2019 15:00:00 23,2 6,1 18 10 32 18 ZZO 1005,2 20
22.04.2019 14:00:00 24,2 5,1 18 10 - - OZO 1005,7 18
22.04.2019 13:00:00 22,8 5,2 14 8 22 12 OZO 1006,6 11
22.04.2019 12:00:00 21,6 5,2 11 6 18 10 ZO 1007,2 12
22.04.2019 11:00:00 19,7 7,7 11 6 - - OZO 1008,1 7
22.04.2019 10:00:00 16,0 7,9 11 6 18 10 OZO 1008,5 15
22.04.2019 09:00:00 12,1 7,5 7 4 11 6 O 1009,0 8
22.04.2019 08:00:00 8,6 5,2 7 4 - - O 1009,5 6
22.04.2019 07:00:00 7,6 4,2 4 2 7 4 - 1009,7 5
22.04.2019 06:00:00 7,9 4,4 7 4 11 6 O 1010,1 5
22.04.2019 05:00:00 8,5 4,6 7 4 - - ONO 1010,7 6
22.04.2019 04:00:00 9,6 5,8 7 4 7 4 NO 1011,5 6
22.04.2019 03:00:00 9,6 6,3 8 4 11 6 ONO 1012,2 4,9
22.04.2019 02:00:00 10,6 6,2 7 4 - - NO 1013,2 7
22.04.2019 01:00:00 9,4 6,4 7 4 11 6 NNO 1013,8 6
22.04.2019 00:00:00 9,5 6,2 7 4 11 6 NNO 1014,3 5
21.04.2019 23:00:00 11,2 6,1 7 4 - - N 1015,0 7
21.04.2019 22:00:00 11,6 4,5 7 4 14 8 NNO 1015,5 8
21.04.2019 21:00:00 13,0 4,0 11 6 25 14 NO 1015,6 9
21.04.2019 20:00:00 15,0 4,7 16 9 - - NO 1015,7 7
21.04.2019 19:00:00 16,2 4,6 25 14 32 18 NO 1016,3 9
21.04.2019 18:00:00 17,0 4,4 24 13 32 18 NNO 1017,0 7
21.04.2019 17:00:00 18,6 5,3 22 12 - - NNO 1017,7 10
21.04.2019 16:00:00 18,9 6,6 22 12 29 16 NNO 1018,3 7
21.04.2019 15:00:00 18,9 7,0 24 13 29 16 NNO 1019,2 10
21.04.2019 14:00:00 19,5 6,9 18 10 - - NNO 1020,0 7
21.04.2019 13:00:00 19,9 7,0 18 10 29 16 NNO 1020,5 13
21.04.2019 12:00:00 20,8 4,5 18 10 29 16 ONO 1021,2 15
21.04.2019 11:00:00 18,0 6,2 9 5 - - O 1022,0 7
21.04.2019 10:00:00 15,1 6,0 11 6 14 8 O 1022,3 11
21.04.2019 09:00:00 12,8 5,9 7 4 11 6 ONO 1022,6 10
21.04.2019 08:00:00 9,3 5,0 8 4 - - O 1022,7 8
21.04.2019 07:00:00 7,7 3,9 7 4 7 4 O 1022,8 8
21.04.2019 06:00:00 7,9 4,0 7 4 7 4 ONO 1023,2 8
21.04.2019 05:00:00 8,3 4,6 4 2 - - N 1023,6 7
21.04.2019 04:00:00 8,6 4,7 7 4 11 6 O 1024,2 7
21.04.2019 03:00:00 9,8 5,0 11 6 11 6 NO 1024,7 8
21.04.2019 02:00:00 10,7 6,3 4 2 - - N 1025,2 8
21.04.2019 01:00:00 10,3 7,0 11 6 11 6 N 1025,7 6
21.04.2019 00:00:00 10,4 7,4 7 4 18 10 NNO 1026,2 5
20.04.2019 23:00:00 11,0 7,2 11 6 - - NNO 1026,5 5
20.04.2019 22:00:00 11,8 7,0 14 8 22 12 NNO 1026,7 8
20.04.2019 21:00:00 13,4 5,7 18 10 32 18 NO 1026,5 12
20.04.2019 20:00:00 15,3 5,5 25 14 - - NNO 1026,7 11
20.04.2019 19:00:00 16,7 6,3 22 12 32 18 NNO 1026,9 11
20.04.2019 18:00:00 17,1 7,9 22 12 29 16 NNO 1027,2 8
20.04.2019 17:00:00 16,7 8,2 18 10 - - NNO 1027,7 6
20.04.2019 16:00:00 17,6 8,7 18 10 29 16 N 1028,2 13
20.04.2019 15:00:00 17,9 8,9 22 12 25 14 N 1028,7 7
20.04.2019 14:00:00 17,8 9,1 18 10 - - N 1028,7 8
20.04.2019 13:00:00 18,4 9,5 14 8 22 12 N 1029,2 9
20.04.2019 12:00:00 17,3 10,2 14 8 22 12 N 1029,4 15
20.04.2019 11:00:00 17,7 9,1 8 4 - - N 1029,5 7
20.04.2019 10:00:00 17,1 8,4 4 2 11 6 N 1029,5 9
20.04.2019 09:00:00 14,2 8,7 8 4 11 6 NO 1029,5 7
20.04.2019 08:00:00 10,3 7,5 7 4 - - NNO 1029,2 5
20.04.2019 07:00:00 9,0 6,7 7 4 11 6 NO 1028,9 5
20.04.2019 06:00:00 8,7 6,6 11 6 14 8 NNO 1028,5 3,4
20.04.2019 05:00:00 9,1 7,3 11 6 - - NNO 1028,5 2,4
20.04.2019 04:00:00 9,2 7,3 11 6 18 10 NNO 1028,5 2,4
20.04.2019 03:00:00 9,8 7,7 11 6 18 10 NNO 1028,2 3,2
20.04.2019 02:00:00 10,7 8,0 14 8 - - NNO 1028,5 4,2
20.04.2019 01:00:00 11,0 8,1 15 8 22 12 NNO 1028,7 5
20.04.2019 00:00:00 11,6 7,7 18 10 22 12 NNO 1028,9 6
19.04.2019 23:00:00 12,2 7,3 14 8 - - NNO 1028,7 7
19.04.2019 22:00:00 12,2 7,3 16 9 22 12 NNO 1028,5 8
19.04.2019 21:00:00 13,9 6,8 18 10 29 16 NNO 1028,2 9
19.04.2019 20:00:00 15,5 6,8 18 10 - - NO 1027,7 10
19.04.2019 19:00:00 16,8 7,0 25 14 40 21 NNO 1027,5 10
19.04.2019 18:00:00 18,2 6,9 25 14 32 18 NNO 1027,2 12
19.04.2019 17:00:00 19,0 7,4 25 14 - - NNO 1027,2 11
19.04.2019 16:00:00 19,8 9,0 22 12 25 14 NNO 1027,0 19
19.04.2019 15:00:00 19,8 8,9 14 8 25 14 N 1027,0 15
19.04.2019 14:00:00 19,1 8,9 16 9 - - N 1027,2 9
19.04.2019 13:00:00 19,6 9,0 14 8 18 10 N 1027,2 15
19.04.2019 12:00:00 19,5 8,7 11 6 22 12 N 1027,4 15
19.04.2019 11:00:00 17,9 7,0 11 6 - - O 1027,4 12
19.04.2019 10:00:00 15,7 6,6 11 6 18 10 O 1027,2 12
19.04.2019 09:00:00 12,7 6,0 7 4 14 8 ONO 1026,7 12
19.04.2019 08:00:00 9,6 4,9 7 4 - - ONO 1026,5 12
19.04.2019 07:00:00 7,4 3,1 7 4 11 6 ONO 1026,0 12
19.04.2019 06:00:00 7,6 3,3 7 4 11 6 ONO 1025,7 10
19.04.2019 05:00:00 7,8 3,7 7 4 - - ONO 1025,5 10
19.04.2019 04:00:00 8,7 4,1 11 6 14 8 ONO 1025,2 11
19.04.2019 03:00:00 9,3 4,3 7 4 14 8 ONO 1025,0 12
19.04.2019 02:00:00 10,0 4,8 11 6 - - ONO 1024,9 10
19.04.2019 01:00:00 12,7 5,3 18 10 22 12 ONO 1024,9 13
19.04.2019 00:00:00 13,1 5,7 14 8 18 10 NO 1024,5 14
18.04.2019 23:00:00 13,6 6,3 14 8 - - NO 1024,2 11
18.04.2019 22:00:00 12,5 6,7 14 8 18 10 NO 1023,8 12
18.04.2019 21:00:00 12,1 7,1 14 8 14 8 NNO 1023,6 12
18.04.2019 20:00:00 14,5 7,4 11 6 - - NNO 1023,1 12
18.04.2019 19:00:00 17,2 7,3 21 11 25 14 NNO 1022,7 10
18.04.2019 18:00:00 19,9 7,5 18 10 36 19 NO 1022,5 12
18.04.2019 17:00:00 20,4 6,1 22 12 - - NO 1022,5 13
18.04.2019 16:00:00 22,6 1,4 25 14 40 21 O 1022,6 15
18.04.2019 15:00:00 22,2 2,9 25 14 40 21 O 1022,7 15
18.04.2019 14:00:00 21,7 4,0 22 12 - - O 1022,7 12
18.04.2019 13:00:00 20,1 6,6 18 10 29 16 ONO 1022,8 12
18.04.2019 12:00:00 18,1 7,3 14 8 22 12 O 1023,2 10
18.04.2019 11:00:00 16,9 7,5 11 6 - - O 1023,2 10
18.04.2019 10:00:00 14,1 9,0 14 8 22 12 O 1023,2 7
18.04.2019 09:00:00 11,7 8,4 11 6 18 10 O 1023,0 4,5
18.04.2019 08:00:00 9,3 8,1 7 4 - - ONO 1022,7 3,0
18.04.2019 07:00:00 6,8 5,5 8 4 11 6 ONO 1022,5 2,0
18.04.2019 06:00:00 7,0 5,6 7 4 14 8 ONO 1022,2 1,7
18.04.2019 05:00:00 8,1 6,4 11 6 - - ONO 1022,2 1,9
18.04.2019 04:00:00 8,6 6,6 11 6 11 6 ONO 1022,5 2,2
18.04.2019 03:00:00 9,5 6,8 7 4 14 8 NO 1022,5 2,5
18.04.2019 02:00:00 10,9 7,5 11 6 - - ONO 1022,7 3,7
18.04.2019 01:00:00 11,2 8,1 11 6 14 8 ONO 1022,5 3,4
18.04.2019 00:00:00 10,8 8,2 7 4 11 6 ONO 1022,2 2,6
17.04.2019 23:00:00 11,8 8,8 7 4 - - ONO 1022,2 2,8
17.04.2019 22:00:00 11,6 8,8 7 4 11 6 ONO 1022,1 2,1
17.04.2019 21:00:00 12,3 9,0 7 4 18 10 ONO 1021,2 2,0
17.04.2019 20:00:00 13,3 9,1 14 8 - - ONO 1020,8 2,2
17.04.2019 19:00:00 14,0 9,2 14 8 22 12 NO 1021,0 2,2
17.04.2019 18:00:00 13,3 8,9 14 8 22 12 NO 1021,1 2,1
17.04.2019 17:00:00 12,3 8,9 18 10 - - NNO 1021,1 2,5
17.04.2019 16:00:00 13,1 8,6 14 8 18 10 N 1021,2 3,0
17.04.2019 15:00:00 11,6 8,3 14 8 18 10 N 1021,2 3,0
17.04.2019 14:00:00 14,2 8,1 4 2 - - N 1021,2 3,5
17.04.2019 13:00:00 13,3 8,8 4 2 14 8 N 1021,2 3,0
17.04.2019 12:00:00 11,8 8,6 4 2 11 6 N 1021,2 2,8
17.04.2019 11:00:00 11,3 8,1 4 2 - - N 1020,8 2,2
17.04.2019 10:00:00 9,6 8,0 7 4 14 8 ZW 1020,7 2,2
17.04.2019 09:00:00 8,1 7,5 4 2 7 4 N 1020,2 1,4
17.04.2019 08:00:00 5,1 4,8 4 2 - - N 1019,7 0,8

tt = temperatuur
td = dauwpunt
ff = windsnelheid
fx = windstoten
dd = windrichting
ppp = luchtdruk
vv = zicht

Weerstations in de omgeving